Regional Weather Roundup
Issued by NWS Northern Indiana

Home | Current Version | Previous Version | Graphics & Text | Print | Product List | Glossary On
Versions: 1 2 3 4 5 6 7 8 9 10 11 12 13 14 15 16 17 18 19 20 21 22 23 24 25 26 27 28 29 30 31 32 33 34 35 36 37 38 39 40 41 42 43 44 45 46 47 48 49 50
000
ASUS43 KIWX 262310
RWRIWX

KIWX WEATHER ROUNDUP
NATIONAL WEATHER SERVICE NORTHERN INDIANA
700 PM EDT THU MAR 26 2015

NOTE: "FAIR" INDICATES FEW OR NO CLOUDS BELOW 12,000 FEET WITH NO
SIGNIFICANT WEATHER AND/OR OBSTRUCTIONS TO VISIBILITY.

* THESE STATIONS ARE NOT UNDER NWS QUALITY CONTROL. THEY ALSO MAY NOT
  REPORT WEATHER SUCH AS PRECIPITATION OR FOG.

INZ001>027-270000-
NORTHERN INDIANA

CITY           SKY/WX    TMP DP  RH WIND       PRES   REMARKS
GARY*          PTSUNNY   39  19  45 NE9       30.01R
VALPARAISO     CLOUDY    37  22  54 N10       29.99R
MICHIGAN CITY* CLOUDY    36  21  55 N8        29.99F
LAPORTE*       CLOUDY    38  24  56 N13       29.99S
KNOX*            N/A     37   7  28 N14       29.96R
SOUTH BEND     CLOUDY    38  23  55 NW15      29.98S
ELKHART*       CLOUDY    37  19  48 NW9       29.97S
GOSHEN         CLOUDY    38  22  52 NW18G24   29.95S
MONTICELLO*    PTSUNNY   42  29  60 NW16      29.95S
LOGANSPORT*    CLOUDY    41  30  65 N12       29.95S
ROCHESTER*     PTSUNNY   43  27  52 N13G18    29.95S
WARSAW*        PTSUNNY   37  23  56 NW13G18   29.95S
ANGOLA*        CLOUDY    37  21  52 NW15      29.93R
FORT WAYNE     PTSUNNY   39  26  59 NW17G26   29.94R
HUNTINGTON*    PTSUNNY   39  22  52 N9G20     29.94R
PERU/GRISSOM   CLOUDY    42  29  59 N10       29.93S
MARION*        CLOUDY    41  28  60 N10       29.94R

$$
INZ028>050-270000-
CENTRAL INDIANA

CITY           SKY/WX    TMP DP  RH WIND       PRES   REMARKS
LAFAYETTE      PTSUNNY   43  27  53 NW13      29.96S
KOKOMO*          N/A     43  30  61 N12       29.94R
MUNCIE*        CLOUDY    43  32  65 NW15      29.92S
INDIANAPOLIS   PTSUNNY   42  30  62 NW12      29.94R

$$
MIZ043>046-050>051-056>058-064>065-071>073-077>080-270000-
SOUTHWEST LOWER MICHIGAN

CITY           SKY/WX    TMP DP  RH WIND       PRES   REMARKS
BATTLE CREEK   CLOUDY    36  23  59 NW15      29.94R
BENTON HARBOR  CLOUDY    34  26  72 VRB5      29.99R WCI  30
COLDWATER*     CLOUDY    36  20  52 NW13G21   29.93S
HILLSDALE*     CLOUDY    37  23  56 NW15G23   29.90R
HOLLAND        CLOUDY    34  26  72 NW12G18   29.99R WCI  25
GRAND RAPIDS   CLOUDY    34  24  67 NW14      29.94R WCI  25
KALAMAZOO      CLOUDY    36  22  56 NW15      29.95R
STURGIS*       CLOUDY    37  21  52 NW10G16   29.94R
THREE RIVERS*  CLOUDY    37  22  56 NW10      29.95S

$$
OHZ001>008-015>018-024>025-270000-
NORTHWEST OHIO

CITY           SKY/WX    TMP DP  RH WIND       PRES   REMARKS
WAUSEON*       CLOUDY    41  28  60 NW13G23   29.90R
DEFIANCE       CLOUDY    41  27  57 NW15      29.91R
FINDLAY        CLOUDY    42  30  62 W12       29.88R
TOLEDO EXPRESS CLOUDY    42  26  53 NW9       29.88R
TOLEDO METCALF CLOUDY    43  27  53 NW13      29.88S
LIMA           CLOUDY    42  32  67 W13       29.89S

$$
AND FOR LAKE MICHIGAN COASTAL AND OPEN LAKE BUOY OBSERVATIONS

STATION/POSITION TEMP    WIND        PRES    VSBY  WAVE
                 AIR SEA DIR/SP/G                  HT/PER
                 (F)     (DEG/KT/KT) (MB)    (MI)  (FT/S)
CALUMET HARBOR    36      30/  7/  9 1014.8R
MICHIGAN CITY     35     350/  7/  7   N/A
BURNS HARBOR      36      30/  6/  7 1016.3F
SAINT JOSEPH      34     330/  6/  9 1016.6S

$$
&&


USA.gov is the U.S. government's official web portal to all federal, state and local government web resources and services.